Zurück zum Katalog

CRRES DEB

CANISTER

AktivHEO
NORAD 21948·DEBRIS·🇺🇸 United States

Gestartet Jul 25, 1990 von Cape Canaveral Space Force Station

Loading…

Nächste Überflüge (nächste 24 Stunden)

TLE

AktuellSource: Space-Track

Epoche: Sep 14, 2026, 10:02 UTC

1 21948U 90065S   26257.41869903  .00001962  00000-0  70218-3 0  9995
2 21948  17.9485   0.7803 6200764 257.1905  31.0672  3.72208493366936

Verfolge CRRES DEB in Echtzeit mit AllMySat

Download on the App Store